User: anonymous   Login
Location: Clyde
(45.1830°S, 169.3170°E)
Time: 05:16:32
(UTC+13:00)
Language:

Cosmos 1633 Rocket - Orbit

View from above orbital plane
View from above orbital plane
View from above satellite
View from above satellite

Ground track
Ground track

The orbit data is extracted from the following two-line orbital elements,

1 15593U 85020B   19080.34486494  .00000062  00000-0  44570-5 0  9991
2 15593  82.5405  21.7069 0013245  80.2091 280.0619 14.84349493839622
Epoch (UTC): 21 March 2019 08:16:36
Eccentricity: 0.0013245
inclination: 82.5405°
perigee height: 606 km
apogee height: 625 km
right ascension of ascending node: 21.7069°
argument of perigee: 80.2091°
revolutions per day: 14.84349493
mean anomaly at epoch: 280.0619°
orbit number at epoch: 83962

The dashed part of the orbit path shows where the satellite is in the earth's shadow,  

DLR